115  
ASUS44 KOHX 161610  
RWROHX  
MIDDLE TENNESSEE HOURLY WEATHER ROUNDUP  
NATIONAL WEATHER SERVICE NASHVILLE TN  
1100 AM CDT TUE JUL 16 2019  
 
NOTE: "FAIR" INDICATES FEW OR NO CLOUDS BELOW 12,000 FEET WITH  
NO SIGNIFICANT WEATHER AND/OR S TO VISIBILITY
.  
 
* THESE REPORTS ARE NOT UNDER NWS QUALITY CONTROL AND MAY NOT  
REPORT WEATHER SUCH AS PRECIPITATION AND FOG.
 
 
 
TNZ005>011-023>034-057-059-062>066-078-080-161700   
..NORTHERN MIDDLE TENNESSEE
 
 
 
CITY SKY/WX TMP DP RH WIND PRES REMARKS
 
CLARKSVILLE CLOUDY 82 73 74 S15G23 30.04R  
CROSSVILLE N/A 80 68 66 S10G21 30.19S  
GALLATIN PTSUNNY 84 73 70 S10G17 30.10S HX 91  
LEBANON PTSUNNY 84 72 65 SW17G25 30.07S  
LIVINGSTON PTSUNNY 82 72 69 SW8G18 30.12S  
NASHVILLE PTSUNNY 85 69 58 S18G24 30.08S  
PORTLAND MOSUNNY 84 72 65 SW16G25 30.07R  
ROCKWOOD PTSUNNY 82 72 69 S10 30.18S  
SMYRNA N/A 84 73 69 S8G20 30.10R HX 90  
SPARTA PTSUNNY 84 72 65 SW9G16 30.12S  
WEST NASHVILLE PTSUNNY 86 72 62 S16 30.05S HX 92  

 
TNZ056-058-060-061-075>077-079-093>097-161700   
..SOUTHERN MIDDLE TENNESSEE
 
 
 
CITY SKY/WX TMP DP RH WIND PRES REMARKS
 
COLUMBIA MOSUNNY 82 75 78 S16G23 30.06F  
FAYETTEVILLE PTSUNNY 82 73 74 S14 30.13S  
LAWRENCEBURG PTSUNNY 81 72 74 S9G17 30.10S  
LEWISBURG PTSUNNY 84 73 70 S15G24 30.09S HX 91  
MCMINNVILLE MOSUNNY 84 72 65 SW12G20 30.13R  
MURFREESBORO PTSUNNY 84 72 65 SW16G28 30.08S  
PULASKI PTSUNNY 84 73 70 S13G18 30.10R HX 91  
SHELBYVILLE PTSUNNY 82 73 74 S17G28 30.11S  
TULLAHOMA MOSUNNY 82 72 69 S13G23 30.13S  
WINCHESTER MOSUNNY 84 70 61 SW17 30.14S  

 
 
   
..KEY TO REMARKS
 
 
VSB - VISIBILITY IN MILES  
WCI - WIND CHILL INDEX  
HX - HEAT INDEX  
 
 
 
CLICK HERE TO GO TO PREVIOUS BULLETINS.

The Nexlab TN Page Main Text Page